Regional Weather Roundup
Issued by NWS State College, PA

Home | Current Version | Previous Version | Graphics & Text | Print | Product List | Glossary On
Versions: 1 2 3 4 5 6 7 8 9 10 11 12 13 14 15 16 17 18 19 20 21 22 23 24 25 26 27 28 29 30 31 32 33 34 35 36 37 38 39 40 41 42 43 44 45 46 47 48 49 50
851
ASUS41 KCTP 201403
RWRCTP

REGIONAL WEATHER ROUNDUP
NATIONAL WEATHER SERVICE STATE COLLEGE PA
900 AM EST FRI JAN 20 2017

Note: "fair" indicates few or no clouds below 12,000 feet with no
significant weather and/or obstructions to visibility.

* = STATION THAT DOES NOT REPORT PRECIPITATION /E.G. RAIN...SNOW...ETC/
    THUNDER OR FOG.

PAZ002>004-007>009-013>016-020>023-029>032-201500-
WESTERN PENNSYLVANIA

CITY           SKY/WX    TMP DP  RH WIND       PRES   REMARKS
ERIE           LGT RAIN  41  33  73 SE5       29.74S
MEADVILLE      LGT RAIN  36  33  89 SE8       29.72F FOG
FRANKLIN*        N/A     36  30  80 SE8       29.76R
NEW CASTLE     LGT RAIN  40  38  93 VRB6      29.73F
BEAVER COUNTY  LGT RAIN  39  37  93 SE8       29.72F
BUTLER*        CLOUDY    39  36  87 E12       29.76F
PITTSBURGH INT LGT RAIN  40  39  97 SE7       29.72F FOG
PITTSBURGH     LGT RAIN  41  37  86 SE7       29.73S FOG
INDIANA*       CLOUDY    43  39  87 S12G18    29.81S FOG
LATROBE        LGT RAIN  45  41  87 S7        29.77S
WASHINGTON CO* CLOUDY    41  39  93 SE3       29.73F
$$

PAZ004>006-010>012-017>019-024>028-033>037-041-042-045-046-049>053-201500-
CENTRAL PENNSYLVANIA

CITY           SKY/WX    TMP DP  RH WIND       PRES   REMARKS
BRADFORD       CLOUDY    34  34 100 SE10      29.78R
DUBOIS         CLOUDY    36  32  85 SE13      29.78R FOG
CLEARFIELD     LGT RAIN  33  33 100 NE7       29.85R FOG
JOHNSTOWN      LGT RAIN  37  36  96 S12       29.79S FOG
ALTOONA        LGT RAIN  37  35  92 S3        29.87R FOG
STATE COLLEGE  DRIZZLE   32  30  93 CALM      29.88R FOG
WILLIAMSPORT   CLOUDY    32  31  96 W3        29.93S
SELINSGROVE    CLOUDY    30  29  96 N3        29.96R FOG
FT INDIANTOWN  CLOUDY    34  34 100 CALM      29.98R
CAPITAL CITY   CLOUDY    38  33  82 SE5       29.97R
HARRISBURG     CLOUDY    37  34  89 CALM      29.98R
YORK           CLOUDY    36  36 100 E3        29.95R FOG
$$

PAZ038>040-043-044-047-048-054-055-060>062-067>071-201500-
EASTERN PENNSYLVANIA

CITY           SKY/WX    TMP DP  RH WIND       PRES   REMARKS
SCRANTON       MOSUNNY   38  33  82 CALM      29.93S
MOUNT POCONO   CLOUDY    31  29  92 SE7       29.92S
ALLENTOWN      CLOUDY    33  30  88 E3        29.99S
QUAKERTOWN*    PTSUNNY   28  28 100 CALM      29.99F
READING        MOSUNNY   31  31 100 NW3       29.98S
LANCASTER      CLOUDY    34  32  92 E3        29.98R FOG
COATESVILLE      N/A    N/A N/A N/A MISG        N/A
POTTSTOWN      CLOUDY    32  30  92 NE3       30.00F FOG
BLUE BELL      CLOUDY    32  32 100 CALM      29.98S
DOYLESTOWN     CLOUDY    33  32  96 CALM      29.99R
WILLOW GROVE   NOT AVBL
NORTH PHILA    CLOUDY    36  33  89 CALM      30.02S
PHILADELPHIA   CLOUDY    37  34  89 CALM      30.01S
$$




USA.gov is the U.S. government's official web portal to all federal, state and local government web resources and services.